Kezdőlap
METAR-TAF:

METAR-TAF

Repülőterek :

Stanton, Minnesota, Amerikai Egyesült Államok

földrajzi szélesség: 44-28-32N, földrajzi hosszúság: 093-00-59W, magasság: 280 m

Jelenlegi meteorológiai megfigyelések

A jelentés 18 perccel ezelõtt készült, 12:35 UTC
Szélcsend
Hőmérséklet -17°C
Páratartalom 84%
Légköri nyomás 1029 hPa
Látótávolság: 16.1 km
Derült ég

METAR: KSYN 081235Z AUTO 00000KT 10SM CLR M17/M19 A3038 RMK AO2 T11701191

Idő: 06:53 (12:53 UTC)


TAF: hiányzik

Meteorológiai megfigyelések és előrejelzések több, mint 4000 repülőtéren (METAR és TAF jelentéseket).

A térképen piros és sárga pontok jelzik az elérhető meteorológiai állomásokat.

Mozgassa az egeret a pont fölött, hogy megjelenjen az állomás neve.

Azután kattintson az időjárási megfigyelések és előrejelzések megtekintéséhez.

A térkép megváltoztatása: kattintson a fekete keresztel jelölt zöld gombra ráközelítéshez, a vonallal jelölt zöld gombra távolításhoz, vagy a zöld nyilakra a szomszédos térképek eléréséhez.


METAR-TAF: